{"data":{"norad_id":64594,"epoch":"2026-09-20T23:15:16.454880Z","epoch_age_seconds":91195,"freshness":"FRESH","line1":"1 64594U 25137A   26263.96894045  .00014243  00000+0  43185-3 0  9997","line2":"2 64594  53.1612 145.3085 0002130  90.3186 269.8060 15.34400891 70673","mean_motion":15.34400891,"eccentricity":0.000213,"inclination_deg":53.1612,"raan_deg":145.3085,"arg_perigee_deg":90.3186,"mean_anomaly_deg":269.806,"bstar":0.00043185,"rev_number":7067,"period_min":93.847703585568,"perigee_km":461.24349356153,"apogee_km":464.15769037571,"semimajor_km":6840.8375919686,"source":"CELESTRAK","updated_at":"2026-09-21T09:00:35.363498Z"}}